Regional Weather Roundup
Issued by NWS

Home | Current Version | Previous Version | Graphics & Text | Print | Product List | Glossary Off
Versions: 1 2 3 4 5 6 7 8 9 10 11 12 13 14 15 16 17 18 19 20 21 22 23 24 25 26 27 28 29 30 31 32 33 34 35 36 37 38 39 40 41 42 43 44 45 46 47 48 49 50

000
ASUS43 KTOP 302259
RWRKS

WEATHER ROUNDUP FOR KANSAS
NATIONAL WEATHER SERVICE GOODLAND KS
600 PM CDT MON MAY 30 2016

NOTE:  "FAIR" INDICATES FEW OR NO CLOUDS BELOW 12,000 FEET WITH NO
SIGNIFICANT WEATHER AND/OR OBSTRUCTIONS TO VISIBILITY.

KSZ001>006-013>018-027>032-041>047-310000-
NORTHWEST KANSAS

CITY           SKY/WX    TMP DP  RH WIND       PRES   REMARKS
GOODLAND       CLOUDY    81  53  37 S18       29.84F
HAYS           SUNNY     82  55  39 S18G24    29.86F
HILL CITY      SUNNY     85  53  33 S17G24    29.85F
RUSSELL        LGT RAIN  80  59  48 S20       29.87F
$$

KSZ061>065-074>080-084>089-310000-
SOUTHWEST KANSAS

CITY           SKY/WX    TMP DP  RH WIND       PRES   REMARKS
DODGE CITY     SUNNY     81  54  39 S16G26    29.88F
ELKHART          N/A     82  57  42 S17         N/A
GARDEN CITY    CLOUDY    84  51  31 S16       29.86F
GREAT BEND     SUNNY     81  57  44 S17       29.88F
LIBERAL        SUNNY     82  52  34 S17G24    29.90F
$$

KSZ066>073-081>083-090>101-310000-
SOUTHEAST KANSAS

CITY           SKY/WX    TMP DP  RH WIND       PRES   REMARKS
CHANUTE        MOSUNNY   76  60  57 SE15      29.97F
COFFEYVILLE    CLOUDY    74  64  71 SE10      29.97F
HUTCHINSON     MOSUNNY   84  59  42 S15       29.90F
MEDICINE LODGE   N/A     83  57  41 SE13G18   29.88F
NEWTON         MOSUNNY   81  57  44 SE15G22   29.95F
PARSONS        CLOUDY    76  62  62 SE7       29.99F
WICHITA INTL   MOSUNNY   81  61  50 S13       29.91F
WICHITA JABRA  SUNNY     78  61  55 SE14      29.92F
WINFIELD       MOSUNNY   78  63  59 SE10      29.94F
$$

KSZ007>012-019>026-033>040-048>060-102>105-310000-
NORTHEAST KANSAS

CITY           SKY/WX    TMP DP  RH WIND       PRES   REMARKS
CONCORDIA      SUNNY     80  60  50 S12G24    29.87F
EMPORIA        SUNNY     78  59  51 S16       29.94F
LAWRENCE       PTSUNNY   80  62  54 S15       29.94F
MANHATTAN      SUNNY     83  61  47 S14       29.89F
OLATHE IND     CLOUDY    75  65  70 SE10      29.97F
OLATHE EXE     CLOUDY    71  62  73 S13       29.97F
SALINA         MOSUNNY   83  62  49 S13       29.88F
TOPEKA BILLARD MOSUNNY   80  60  50 SE18G24   29.92F
TOPEKA FORBES  SUNNY     81  62  52 S18G24    29.93F
$$




USA.gov is the U.S. government's official web portal to all federal, state and local government web resources and services.